Time,TemperatureF,DewpointF,PressureIn,WindDirection,WindDirectionDegrees,WindSpeedMPH,WindSpeedGustMPH,Humidity,HourlyPrecipIn,Conditions,Clouds,dailyrainin,SolarRadiationWatts/m^2,SoftwareType,DateUTC
2013-04-24 00:02:00,45.0,22.0,-100.00,SSW,201,0.0,5.0,40,0.00,,,0.00,0.000000,,2013-04-24 07:02:00,
2013-04-24 00:11:00,45.0,22.0,-100.00,SSW,201,0.0,5.0,40,0.00,,,0.00,0.000000,,2013-04-24 07:11:00,
2013-04-24 00:21:00,45.0,22.0,-100.00,SSW,201,0.0,5.0,40,0.00,,,0.00,0.000000,,2013-04-24 07:21:00,
2013-04-24 00:52:00,46.0,24.0,-100.00,ESE,112,2.0,5.0,42,0.00,,,0.00,0.000000,,2013-04-24 07:52:00,
2013-04-24 01:01:00,46.0,24.0,-100.00,ESE,112,2.0,5.0,42,0.00,,,0.00,0.000000,,2013-04-24 08:01:00,
2013-04-24 01:11:00,46.0,24.0,-100.00,ESE,112,2.0,5.0,42,0.00,,,0.00,0.000000,,2013-04-24 08:11:00,
2013-04-24 01:21:00,46.0,24.0,-100.00,ESE,112,2.0,5.0,42,0.00,,,0.00,0.000000,,2013-04-24 08:21:00,
2013-04-24 01:52:00,44.0,23.0,-100.00,SSE,156,2.0,7.0,44,0.00,,,0.00,0.000000,,2013-04-24 08:52:00,
2013-04-24 02:01:00,44.0,23.0,-100.00,SSE,156,2.0,7.0,44,0.00,,,0.00,0.000000,,2013-04-24 09:01:00,
2013-04-24 02:11:00,44.0,23.0,-100.00,SSE,156,2.0,7.0,44,0.00,,,0.00,0.000000,,2013-04-24 09:11:00,
2013-04-24 02:21:00,44.0,23.0,-100.00,SSE,156,2.0,7.0,44,0.00,,,0.00,0.000000,,2013-04-24 09:21:00,
2013-04-24 02:53:00,44.0,23.0,-100.00,SW,234,0.0,4.0,44,0.00,,,0.00,0.000000,,2013-04-24 09:53:00,
2013-04-24 03:02:00,44.0,23.0,-100.00,SW,234,0.0,4.0,44,0.00,,,0.00,0.000000,,2013-04-24 10:02:00,
2013-04-24 03:12:00,44.0,23.0,-100.00,SW,234,0.0,4.0,44,0.00,,,0.00,0.000000,,2013-04-24 10:12:00,
2013-04-24 03:22:00,44.0,23.0,-100.00,SW,234,0.0,4.0,44,0.00,,,0.00,0.000000,,2013-04-24 10:22:00,
2013-04-24 03:53:00,44.0,24.0,-100.00,West,274,0.0,3.0,45,0.00,,,0.00,0.000000,,2013-04-24 10:53:00,
2013-04-24 04:02:00,44.0,24.0,-100.00,West,274,0.0,3.0,45,0.00,,,0.00,0.000000,,2013-04-24 11:02:00,
2013-04-24 04:11:00,44.0,24.0,-100.00,West,274,0.0,3.0,45,0.00,,,0.00,0.000000,,2013-04-24 11:11:00,
2013-04-24 04:21:00,44.0,24.0,-100.00,West,274,0.0,3.0,45,0.00,,,0.00,0.000000,,2013-04-24 11:21:00,
2013-04-24 04:52:00,43.0,25.0,-100.00,SE,135,3.0,4.0,48,0.00,,,0.00,0.000000,,2013-04-24 11:52:00,
2013-04-24 05:02:00,43.0,25.0,-100.00,SE,135,3.0,4.0,48,0.00,,,0.00,0.000000,,2013-04-24 12:02:00,
2013-04-24 05:11:00,43.0,25.0,-100.00,SE,135,3.0,4.0,48,0.00,,,0.00,0.000000,,2013-04-24 12:11:00,
2013-04-24 05:22:00,43.0,25.0,-100.00,SE,135,3.0,4.0,48,0.00,,,0.00,0.000000,,2013-04-24 12:22:00,
2013-04-24 05:52:00,42.0,25.0,-100.00,SE,145,2.0,5.0,51,0.00,,,0.00,0.000000,,2013-04-24 12:52:00,
2013-04-24 06:01:00,42.0,25.0,-100.00,SE,145,2.0,5.0,51,0.00,,,0.00,0.000000,,2013-04-24 13:01:00,
2013-04-24 06:12:00,42.0,25.0,-100.00,SE,145,2.0,5.0,51,0.00,,,0.00,0.000000,,2013-04-24 13:12:00,
2013-04-24 06:21:00,42.0,25.0,-100.00,SE,145,2.0,5.0,51,0.00,,,0.00,0.000000,,2013-04-24 13:21:00,
2013-04-24 07:52:00,45.0,26.0,-100.00,South,172,0.0,4.0,47,-99.99,,,0.00,55.000000,,2013-04-24 14:52:00,
2013-04-24 08:01:00,45.0,26.0,-100.00,South,172,0.0,4.0,47,-99.99,,,0.00,55.000000,,2013-04-24 15:01:00,
2013-04-24 08:11:00,45.0,26.0,-100.00,South,172,0.0,4.0,47,-99.99,,,0.00,55.000000,,2013-04-24 15:11:00,
2013-04-24 08:21:00,45.0,26.0,-100.00,South,172,0.0,4.0,47,-99.99,,,0.00,55.000000,,2013-04-24 15:21:00,
2013-04-24 08:53:00,51.0,31.0,-100.00,ESE,103,1.0,4.0,46,0.00,,,0.00,248.000000,,2013-04-24 15:53:00,
2013-04-24 09:03:00,51.0,31.0,-100.00,ESE,103,1.0,4.0,46,0.00,,,0.00,248.000000,,2013-04-24 16:03:00,
2013-04-24 09:12:00,51.0,31.0,-100.00,ESE,103,1.0,4.0,46,0.00,,,0.00,248.000000,,2013-04-24 16:12:00,
2013-04-24 09:23:00,51.0,31.0,-100.00,ESE,103,1.0,4.0,46,0.00,,,0.00,248.000000,,2013-04-24 16:23:00,
2013-04-24 09:52:00,54.0,29.0,-100.00,ENE,59,1.0,4.0,38,0.00,,,0.00,426.000000,,2013-04-24 16:52:00,
2013-04-24 10:02:00,54.0,29.0,-100.00,ENE,59,1.0,4.0,38,0.00,,,0.00,426.000000,,2013-04-24 17:02:00,
2013-04-24 10:12:00,54.0,29.0,-100.00,ENE,59,1.0,4.0,38,0.00,,,0.00,426.000000,,2013-04-24 17:12:00,
2013-04-24 10:22:00,54.0,29.0,-100.00,ENE,59,1.0,4.0,38,0.00,,,0.00,426.000000,,2013-04-24 17:22:00,
2013-04-24 10:52:00,56.0,27.0,-100.00,North,354,2.0,5.0,33,0.00,,,0.00,585.000000,,2013-04-24 17:52:00,
2013-04-24 11:02:00,56.0,27.0,-100.00,North,354,2.0,5.0,33,0.00,,,0.00,585.000000,,2013-04-24 18:02:00,
2013-04-24 11:12:00,56.0,27.0,-100.00,North,354,2.0,5.0,33,0.00,,,0.00,585.000000,,2013-04-24 18:12:00,
2013-04-24 11:21:00,56.0,27.0,-100.00,North,354,2.0,5.0,33,0.00,,,0.00,585.000000,,2013-04-24 18:21:00,
2013-04-24 11:52:00,58.0,22.0,-100.00,NNW,335,5.0,8.0,25,0.00,,,0.00,717.000000,,2013-04-24 18:52:00,
2013-04-24 12:01:00,58.0,22.0,-100.00,NNW,335,5.0,8.0,25,0.00,,,0.00,717.000000,,2013-04-24 19:01:00,
2013-04-24 12:11:00,58.0,22.0,-100.00,NNW,335,5.0,8.0,25,0.00,,,0.00,717.000000,,2013-04-24 19:11:00,
2013-04-24 12:21:00,58.0,22.0,-100.00,NNW,335,5.0,8.0,25,0.00,,,0.00,717.000000,,2013-04-24 19:21:00,
2013-04-24 12:52:00,59.0,27.0,-100.00,NNW,330,4.0,12.0,29,0.00,,,0.00,798.000000,,2013-04-24 19:52:00,
2013-04-24 13:01:00,59.0,27.0,-100.00,NNW,330,4.0,12.0,29,0.00,,,0.00,798.000000,,2013-04-24 20:01:00,
2013-04-24 13:11:00,59.0,27.0,-100.00,NNW,330,4.0,12.0,29,0.00,,,0.00,798.000000,,2013-04-24 20:11:00,
2013-04-24 13:21:00,59.0,27.0,-100.00,NNW,330,4.0,12.0,29,0.00,,,0.00,798.000000,,2013-04-24 20:21:00,
2013-04-24 13:52:00,60.0,27.0,-100.00,NW,317,5.0,14.0,28,0.00,,,0.00,839.000000,,2013-04-24 20:52:00,
2013-04-24 14:02:00,60.0,27.0,-100.00,NW,317,5.0,14.0,28,0.00,,,0.00,839.000000,,2013-04-24 21:02:00,
2013-04-24 14:11:00,60.0,27.0,-100.00,NW,317,5.0,14.0,28,0.00,,,0.00,839.000000,,2013-04-24 21:11:00,
2013-04-24 14:21:00,60.0,27.0,-100.00,NW,317,5.0,14.0,28,0.00,,,0.00,839.000000,,2013-04-24 21:21:00,
2013-04-24 14:52:00,62.0,27.0,-100.00,WNW,302,4.0,13.0,26,0.00,,,0.00,825.000000,,2013-04-24 21:52:00,
2013-04-24 15:03:00,62.0,27.0,-100.00,WNW,302,4.0,13.0,26,0.00,,,0.00,825.000000,,2013-04-24 22:03:00,
2013-04-24 15:12:00,62.0,27.0,-100.00,WNW,302,4.0,13.0,26,0.00,,,0.00,825.000000,,2013-04-24 22:12:00,
2013-04-24 15:22:00,62.0,27.0,-100.00,WNW,302,4.0,13.0,26,0.00,,,0.00,825.000000,,2013-04-24 22:22:00,
2013-04-24 15:52:00,61.0,29.0,-100.00,NW,325,6.0,13.0,29,0.00,,,0.00,764.000000,,2013-04-24 22:52:00,
2013-04-24 16:02:00,61.0,29.0,-100.00,NW,325,6.0,13.0,29,0.00,,,0.00,764.000000,,2013-04-24 23:02:00,
2013-04-24 16:12:00,61.0,29.0,-100.00,NW,325,6.0,13.0,29,0.00,,,0.00,764.000000,,2013-04-24 23:12:00,
2013-04-24 16:21:00,61.0,29.0,-100.00,NW,325,6.0,13.0,29,0.00,,,0.00,764.000000,,2013-04-24 23:21:00,
2013-04-24 16:52:00,61.0,29.0,-100.00,NW,310,6.0,12.0,29,0.00,,,0.00,628.000000,,2013-04-24 23:52:00,
2013-04-24 17:01:00,61.0,29.0,-100.00,NW,310,6.0,12.0,29,0.00,,,0.00,628.000000,,2013-04-25 00:01:00,
2013-04-24 17:12:00,61.0,29.0,-100.00,NW,310,6.0,12.0,29,0.00,,,0.00,628.000000,,2013-04-25 00:12:00,
2013-04-24 17:22:00,61.0,29.0,-100.00,NW,310,6.0,12.0,29,0.00,,,0.00,628.000000,,2013-04-25 00:22:00,
2013-04-24 17:52:00,61.0,30.0,-100.00,WNW,299,5.0,15.0,31,0.00,,,0.00,529.000000,,2013-04-25 00:52:00,
2013-04-24 18:01:00,61.0,30.0,-100.00,WNW,299,5.0,15.0,31,0.00,,,0.00,529.000000,,2013-04-25 01:01:00,
2013-04-24 18:11:00,61.0,30.0,-100.00,WNW,299,5.0,15.0,31,0.00,,,0.00,529.000000,,2013-04-25 01:11:00,
2013-04-24 18:22:00,61.0,30.0,-100.00,WNW,299,5.0,15.0,31,0.00,,,0.00,529.000000,,2013-04-25 01:22:00,
2013-04-24 18:52:00,59.0,28.0,-100.00,West,273,9.0,15.0,30,0.00,,,0.00,367.000000,,2013-04-25 01:52:00,
2013-04-24 19:01:00,59.0,28.0,-100.00,West,273,9.0,15.0,30,0.00,,,0.00,367.000000,,2013-04-25 02:01:00,
2013-04-24 19:11:00,59.0,28.0,-100.00,West,273,9.0,15.0,30,0.00,,,0.00,367.000000,,2013-04-25 02:11:00,
2013-04-24 19:22:00,59.0,28.0,-100.00,West,273,9.0,15.0,30,0.00,,,0.00,367.000000,,2013-04-25 02:22:00,
2013-04-24 20:02:00,56.0,28.0,-100.00,West,269,5.0,14.0,34,0.00,,,0.00,180.000000,,2013-04-25 03:02:00,
2013-04-24 20:11:00,56.0,28.0,-100.00,West,269,5.0,14.0,34,0.00,,,0.00,180.000000,,2013-04-25 03:11:00,
2013-04-24 20:21:00,56.0,28.0,-100.00,West,269,5.0,14.0,34,0.00,,,0.00,180.000000,,2013-04-25 03:21:00,
2013-04-24 20:52:00,50.0,28.0,-100.00,ESE,114,2.0,8.0,43,0.00,,,0.00,40.000000,,2013-04-25 03:52:00,
2013-04-24 21:03:00,50.0,28.0,-100.00,ESE,114,2.0,8.0,43,0.00,,,0.00,40.000000,,2013-04-25 04:03:00,
2013-04-24 21:12:00,50.0,28.0,-100.00,ESE,114,2.0,8.0,43,0.00,,,0.00,40.000000,,2013-04-25 04:12:00,
2013-04-24 21:22:00,50.0,28.0,-100.00,ESE,114,2.0,8.0,43,0.00,,,0.00,40.000000,,2013-04-25 04:22:00,
2013-04-24 21:52:00,47.0,28.0,-100.00,SW,214,2.0,4.0,47,0.00,,,0.00,0.000000,,2013-04-25 04:52:00,
2013-04-24 22:02:00,47.0,28.0,-100.00,SW,214,2.0,4.0,47,0.00,,,0.00,0.000000,,2013-04-25 05:02:00,
2013-04-24 22:12:00,47.0,28.0,-100.00,SW,214,2.0,4.0,47,0.00,,,0.00,0.000000,,2013-04-25 05:12:00,
2013-04-24 22:21:00,47.0,28.0,-100.00,SW,214,2.0,4.0,47,0.00,,,0.00,0.000000,,2013-04-25 05:21:00,
2013-04-24 22:52:00,46.0,29.0,-100.00,ESE,121,2.0,4.0,51,0.00,,,0.00,0.000000,,2013-04-25 05:52:00,
2013-04-24 23:01:00,46.0,29.0,-100.00,ESE,121,2.0,4.0,51,0.00,,,0.00,0.000000,,2013-04-25 06:01:00,
2013-04-24 23:11:00,46.0,29.0,-100.00,ESE,121,2.0,4.0,51,0.00,,,0.00,0.000000,,2013-04-25 06:11:00,
2013-04-24 23:22:00,46.0,29.0,-100.00,ESE,121,2.0,4.0,51,0.00,,,0.00,0.000000,,2013-04-25 06:22:00,
2013-04-24 23:52:00,47.0,26.0,-100.00,South,191,0.0,3.0,43,0.00,,,0.00,0.000000,,2013-04-25 06:52:00,